This is the latest recevied weather packets stored in our database for station/object WE8M. If no packets are shown the sender has not sent any weather packets the latest 10 day(s).
| Time | Temp. | Humidity | Pressure | Rain* | Wind** | Luminosity | Snow |
|---|---|---|---|---|---|---|---|
| 1777777616 | 3.33° C | 84% | 1018.8 hPa | 0 mm | - | - | - |
| 1777777313 | 3.33° C | 84% | 1018.8 hPa | 0 mm | - | - | - |
| 1777777010 | 3.33° C | 82% | 1018.6 hPa | 0 mm | - | - | - |
| 1777776708 | 3.33° C | 79% | 1018.6 hPa | 0 mm | - | - | - |
| 1777776404 | 3.33° C | 77% | 1018.8 hPa | 0 mm | - | - | - |
| 1777776102 | 3.33° C | 74% | 1018.7 hPa | 0 mm | - | - | - |
| 1777775798 | 3.89° C | 74% | 1018.7 hPa | 0 mm | - | - | - |
| 1777775495 | 3.89° C | 72% | 1018.7 hPa | 0 mm | - | - | - |
| 1777775191 | 3.89° C | 73% | 1018.7 hPa | 0 mm | - | - | - |
| 1777774886 | 4.44° C | 74% | 1018.7 hPa | 0 mm | - | - | - |
| 1777774583 | 4.44° C | 73% | 1018.6 hPa | 0 mm | - | - | - |
| 1777774280 | 5° C | 67% | 1018.6 hPa | 0 mm | - | - | - |
| 1777773977 | 5° C | 66% | 1018.5 hPa | 0 mm | - | - | - |
| 1777773674 | 5° C | 67% | 1018.6 hPa | 0 mm | - | - | - |
| 1777773371 | 5° C | 66% | 1018.3 hPa | 0 mm | - | - | - |
| 1777773068 | 5° C | 66% | 1018.4 hPa | 0 mm | - | - | - |
| 1777772462 | 5.56° C | 67% | 1018.3 hPa | 0 mm | - | - | - |
| 1777771554 | 6.11° C | 65% | 1018.1 hPa | 0 mm | - | - | - |
| 1777770340 | 6.67° C | 60% | 1017.8 hPa | 0 mm | - | - | - |
| 1777768523 | 7.22° C | 60% | 1017.5 hPa | 0 mm | - | - | - |
| 1777768220 | 7.78° C | 58% | 1017.6 hPa | 0 mm | - | - | - |
| 1777767917 | 7.78° C | 57% | 1017.5 hPa | 0 mm | - | - | - |
| 1777767008 | 8.33° C | 55% | 1017.4 hPa | 0 mm | - | - | - |
| 1777764885 | 8.89° C | 51% | 1017 hPa | 0 mm | - | - | - |
| 1777763371 | 9.44° C | 45% | 1016.8 hPa | 0 mm | - | - | - |
* Rain latest hour (hover to see other rain measurements)
** Current wind speed in m/s (hover to see current wind gust speed)